Regional Weather Roundup
Issued by NWS

Home | Current Version | Previous Version | Graphics & Text | Print | Product List | Glossary On
Versions: 1 2 3 4 5 6 7 8 9 10 11 12 13 14 15 16 17 18 19 20 21 22 23 24 25 26 27 28 29 30 31 32 33 34 35 36 37 38 39 40 41 42 43 44 45 46 47 48 49 50
000
ASUS45 KTFX 210810
RWRMT
MONTANA REGIONAL WEATHER ROUNDUP
NATIONAL WEATHER SERVICE GREAT FALLS MT
200 AM MDT THU SEP 21 2017

NOTE: "FAIR" INDICATES FEW OR NO CLOUDS BELOW 12000 FEET WITH NO
SIGNIFICANT WEATHER AND/OR OBSTRUCTIONS TO VISIBILITY.

MTZ001>007-043-210900-
WEST OF THE DIVIDE

CITY           SKY/WX    TMP DP  RH WIND       PRES   REMARKS
KALISPELL      CLOUDY    42  38  85 CALM      29.72R
MISSOULA       MOCLDY    40  37  89 CALM      29.76R
BUTTE          CLOUDY    33  32  96 S5        29.77S
MULLAN PASS    SNOW      31  29  92 CALM      29.71R VSB 1/4
ANACONDA         N/A     34  28  80 W8        29.76S WCI  27
DEER LODGE       N/A     36  30  80 W3        29.78R
EUREKA           N/A     45  37  76 CALM      29.71R
HAMILTON         N/A     39  36  87 S10       29.75S
LIBBY            N/A     34  34 100 CALM      29.72R
$$

MTZ008-052>055-210900-
SOUTHWEST MONTANA

CITY           SKY/WX    TMP DP  RH WIND       PRES   REMARKS
BOZEMAN        CLOUDY    43  40  89 E3        29.75S
DILLON         CLOUDY    39  33  79 SE3       29.74S
W YELLOWSTONE  LGT RAIN  36  34  93 MISG      29.78R
ENNIS          CLOUDY    43  36  75 N5        29.79R
THREE FORKS      N/A     40  36  86 CALM      29.77S
$$

MTZ009-010-012-014-046-048-049-054-210900-
EAST SLOPES AND CENTRAL MONTANA

CITY           SKY/WX    TMP DP  RH WIND       PRES   REMARKS
CUT BANK       MOCLDY    39  32  76 W10       29.67R
GREAT FALLS    CLOUDY    42  29  59 SW14      29.69R
MALMSTROM AFB  CLOUDY    45  30  55 SW14      29.69R
HELENA         CLOUDY    42  32  67 E9        29.74R
BOWMANS CRNR     N/A     38  26  63 SW3       29.70R
CHOTEAU          N/A     37  27  65 CALM      29.70R
FAIRFIELD        N/A     38  29  70 S9        29.68R WCI  31
POWER            N/A     34  29  83 W7        29.68R WCI  28
RAYNESFORD     MOCLDY    43  29  58 CALM      29.70R
ULM              N/A     40  30  65 SW9       29.71R
$$

MTZ011-013-016-021-045-047-050-051-210900-
NORTH CENTRAL MONTANA

CITY           SKY/WX    TMP DP  RH WIND       PRES   REMARKS
HAVRE          CLOUDY    46  33  60 SW14      29.66R
LEWISTOWN      CLOUDY    42  32  67 W8        29.69S
N BAR RANCH    MOCLDY    45  27  49 CALM      29.73R
CHINOOK          N/A     43  30  61 W5        29.64R
DENTON           N/A     45  30  55 W10       29.66R
GEYSER         MOCLDY    43  29  59 W14       29.68R
GRASS RANGE    MOCLDY    45  31  58 W9        29.66R
JUDITH GAP     MOCLDY    39  30  70 N5        29.70S
WINIFRED       MOCLDY    44  32  63 W8        29.68R
$$

MTZ017>020-022>027-061-062-210900-
NORTHEAST MONTANA

CITY           SKY/WX    TMP DP  RH WIND       PRES   REMARKS
GLASGOW        CLOUDY    48  38  68 W3        29.61R
JORDAN           N/A     50  40  68 NW6       29.65R
SIDNEY         CLOUDY    44  37  76 CALM      29.64R
WOLF POINT     PTCLDY    47  38  71 CALM      29.62R
MALTA          CLEAR     43  36  75 W5        29.64R
POPLAR           N/A     50  36  57 E3        29.62S
$$

MTZ028>42-056>058-210900-
SOUTHCENTRAL AND SOUTHEAST MONTANA

CITY           SKY/WX    TMP DP  RH WIND       PRES   REMARKS
BAKER          CLOUDY    56  32  40 S10       29.65F
BILLINGS       LGT RAIN  49  41  74 S5        29.72R
LIVINGSTON     LGT RAIN  43  41  93 CALM      29.75R
MILES CITY     CLOUDY    53  38  56 W9        29.65R
BIG TIMBER     CLOUDY    45  41  87 W14       29.74S
HARLOWTON      MOCLDY    43  35  73 MISG      29.71R
LAUREL           N/A     48  43  81 NE5       29.72R
$$

REGIONAL REPORTS...DAKOTAS

CITY           SKY/WX    TMP DP  RH WIND       PRES   REMARKS
WILLISTON      PTCLDY    41  37  86 NW5       29.62F
MINOT          PTCLDY    59  37  44 SE9       29.64F
DICKINSON      CLOUDY    53  35  50 S10       29.65F
BEACH            N/A     50  36  57 SE8       29.69F
CROSBY           N/A     43  37  81 S9        29.63F
TIOGA            N/A     39  39 100 E5        29.65F
WATFORD CITY     N/A     43  37  81 S3        29.63S
BISMARCK       PTCLDY    54  39  57 SE10      29.72F
GRAND FORKS    CLEAR     51  46  83 S7        29.82S
FARGO          CLEAR     56  46  69 SE15G21   29.85F
BUFFALO SD       N/A     68  34  28 S16       29.60S
$$

REGIONAL REPORTS...WYOMING/IDAHO/WASHINGTON

CITY           SKY/WX    TMP DP  RH WIND       PRES   REMARKS
GILLETTE       MOCLDY    56  37  49 S7        29.67F
SHERIDAN       CLOUDY    53  37  54 N10       29.70R
BUFFALO WY     CLOUDY    55  28  35 NW8       29.72R
CODY           LGT RAIN  50  38  63 SW15      29.73S
IDAHO FALLS    LGT RAIN  44  43  96 S9        29.77S
SALMON         MOCLDY    39  36  89 CALM      29.79R
BOISE          CLOUDY    49  42  77 W6        29.76R
SPOKANE        MOCLDY    40  40 100 S3        29.75R
$$

REGIONAL REPORTS...ALBERTA

CITY           SKY/WX    TMP DP  RH WIND       PRES   REMARKS
EDMONTON       LGT RAIN  39  39 100 NW12      29.61R WCI  32
CALGARY        MOCLDY    39  28  65 N21       29.66R WCI  29
LETHBRIDGE     CLOUDY    41  32  70 NW10      29.68R
MEDICINE HAT   CLEAR     34  30  86 SW5       29.64R
$$

REGIONAL REPORTS...SASKATCHEWAN

CITY           SKY/WX    TMP DP  RH WIND       PRES   REMARKS
SWIFT CURRENT  CLEAR     36  25  64 W13       29.58R WCI  27
REGINA         PTCLDY    41  32  70 S8        29.57S
SASKATOON      CLEAR     34  30  86 SW8       29.54R WCI  27
$$



USA.gov is the U.S. government's official web portal to all federal, state and local government web resources and services.